OPS 9348

operational
NORAD ID: 3291 Int'l Des: 1968-050 Owner: SAMSO Country: US
MEOCIRCULAR

Über OPS 9348

Beschreibung wird geladen...

Live-Position

3D-Globus wird geladen...

Nächste Überflüge

Höhenverlauf

Altitude vs Time

uPlot chart will show altitude changes over time

Zweizeiliger Elementsatz

1 03291U 68050H 26062.59522078 -.00000119 00000-0 00000-0 0 9990
2 03291 6.6971 55.8362 0073931 132.5474 231.6890 1.06767523224907
Epoch: 3. März 2026 • Age: 23 hours

Aktueller Status

Höhe 33762.0 km
Geschwindigkeit 3.16 km/s
Subsatellitenpunkt 4.11°N, 53.17°E
Typ other

Große Konstellationen

Loading constellations...